Location: Helensbirgh
(56.0153°N, 4.7348°W)
Time: 11:26:25
(UTC+00:00)

Envisat - Pass Details

Date: 24 October 2019
Orbit: 764 x 766 km, 98.1° (Epoch: 22 November)

Event Time Altitude Azimuth Distance (km) Brightness Sun altitude
Rises 21:04:54 0° 225° (SW) 3,228 6.6 -26.6°
Reaches altitude 10° 21:08:46 10° 255° (WSW) 2,309 6.1 -27.1°
Maximum altitude 21:10:48 12° 279° (W) 2,155 6.2 -27.4°
Drops below altitude 10° 21:12:51 10° 303° (WNW) 2,315 6.4 -27.6°
Sets 21:16:44 0° 333° (NNW) 3,248 6.9 -28.1°
